Blythe, CA

10:20 PM PDT on May 23, 2017 (GMT -0700)
Blythe

Weather History for KBLH - February, 2014

Change the Weather History Date:

Thursday, February 20, 2014

  Actual Average Record
Temperature  
Mean Temperature 66 °F -  
Max Temperature 77 °F 69 °F 84 °F (1977)
Min Temperature 54 °F 46 °F 32 °F (1990)
Growing Degree Days 16 (Base 50)    
Moisture  
Dew Point 7 °F    
Average Humidity 10    
Maximum Humidity 17    
Minimum Humidity 6    
Precipitation  
Precipitation 0.00 in - - ()
Sea Level Pressure  
Sea Level Pressure 30.03 in    
Wind  
Wind Speed 14 mph (North)    
Max Wind Speed 23 mph    
Max Gust Speed 28 mph    
Visibility 10 miles    
Events      
Averages and records for this station are not official NWS values.
T = Trace of Precipitation, MM = Missing Value Source: NWS Daily Summary

Daily Weather History Graph

Daily Weather History Graph

Search for Another Location

Airport or City:

Trip Planner

Search our weather history database for the weather conditions in past years. The results will help you decide how hot, cold, wet, or windy it might be!

Date:

Astronomy

Feb. 20, 2014 Rise Set
Actual Time 6:17 AM PST 5:27 PM PST
Civil Twilight 5:52 AM PST 5:53 PM PST
Nautical Twilight 5:23 AM PST 6:22 PM PST
Astronomical Twilight 4:54 AM PST 6:51 PM PST
Moon 11:07 PM PST (2/20) 9:20 AM PST (2/20)
Length of Visible Light 12h 00m
Length of Day
11h 10m
Waning Gibbous, 70% of the Moon is Illuminated
Feb 20
Waning Gibbous
Feb 22
Last Quarter
Mar 1
New
Mar 8
First Quarter
Mar 16
Full

Hourly Weather History & Observations

Time (PST) Temp. Dew Point Humidity Pressure Visibility Wind Dir Wind Speed Gust Speed Precip Events Conditions
12:52 AM 63.0 °F 17.1 °F 17% 29.89 in 10.0 mi North 11.5 mph - N/A   Clear
1:52 AM 64.9 °F 10.9 °F 12% 29.91 in 10.0 mi NNW 16.1 mph - N/A   Clear
2:52 AM 66.0 °F 10.0 °F 11% 29.93 in 10.0 mi NNW 18.4 mph - N/A   Clear
3:52 AM 64.9 °F 10.9 °F 12% 29.96 in 10.0 mi NNW 19.6 mph - N/A   Clear
4:52 AM 64.0 °F 10.9 °F 13% 29.98 in 10.0 mi NNW 20.7 mph - N/A   Clear
5:52 AM 61.0 °F 10.9 °F 14% 30.02 in 10.0 mi NNW 19.6 mph - N/A   Clear
6:52 AM 61.0 °F 10.0 °F 13% 30.06 in 10.0 mi NNW 18.4 mph - N/A   Clear
7:52 AM 64.0 °F 10.0 °F 12% 30.09 in 10.0 mi NNW 19.6 mph - N/A   Clear
8:52 AM 68.0 °F 9.0 °F 10% 30.12 in 10.0 mi North 23.0 mph 27.6 mph N/A   Clear
9:52 AM 71.1 °F 7.0 °F 8% 30.13 in 10.0 mi North 17.3 mph - N/A   Clear
10:52 AM 72.0 °F 7.0 °F 8% 30.14 in 10.0 mi NNW 10.4 mph - N/A   Clear
11:52 AM 73.9 °F 6.1 °F 7% 30.12 in 10.0 mi North 9.2 mph - N/A   Clear
12:52 PM 75.0 °F 3.9 °F 6% 30.08 in 10.0 mi NNW 10.4 mph - N/A   Clear
1:52 PM 75.9 °F 3.9 °F 6% 30.05 in 10.0 mi North 11.5 mph - N/A   Clear
2:52 PM 77.0 °F 3.0 °F 6% 30.03 in 10.0 mi North 15.0 mph - N/A   Clear
3:52 PM 75.9 °F 1.9 °F 6% 30.01 in 10.0 mi North 11.5 mph - N/A   Clear
4:52 PM 73.9 °F 1.9 °F 6% 30.01 in 10.0 mi North 9.2 mph - N/A   Clear
5:52 PM 66.9 °F 5.0 °F 9% 30.01 in 10.0 mi North 6.9 mph - N/A   Clear
6:52 PM 64.0 °F 3.0 °F 9% 30.02 in 10.0 mi NNW 8.1 mph - N/A   Clear
7:52 PM 59.0 °F 3.0 °F 11% 30.03 in 10.0 mi North 5.8 mph - N/A   Clear
8:52 PM 57.0 °F 3.9 °F 12% 30.03 in 10.0 mi North 6.9 mph - N/A   Clear
9:52 PM 54.0 °F 5.0 °F 14% 30.04 in 10.0 mi Calm Calm - N/A   Clear
10:52 PM 55.0 °F 6.1 °F 14% 30.03 in 10.0 mi Calm Calm - N/A   Clear
11:52 PM 59.0 °F 6.1 °F 12% 30.02 in 10.0 mi Calm Calm - N/A   Clear